This demonstration page uses our WeatherBlox Daily Observations layout. Learn more.

Left ArrowRight Arrow

Hourly Observations for August 1, 2021

Temp ( °F °C ) Dew Point ( °F °C ) Humidity (%) Winds ( mph kmh ) Pressure ( in mb ) Visibility ( mi km ) Precip ( " mm )
12:53 am 00:53 Clear with Smoke 82 27.8 57 13.9 42 42 Calm 29.93 1014 10 16 0.00 0.00
1:53 am 01:53 Clear with Smoke 78 25.6 56 13.3 47 47 Calm 29.93 1014 10 16 0.00 0.00
2:53 am 02:53 Clear with Smoke 77 25 56 13.3 48 48 Calm 29.94 1014 10 16 0.00 0.00
3:53 am 03:53 Clear with Smoke 76 24.4 54 12.2 47 47 SE 3 6 29.94 1014 10 16 0.00 0.00
4:53 am 04:53 Clear with Smoke 74 23.3 53 11.7 48 48 NNE 5 7 29.95 1014 10 16 0.00 0.00
5:53 am 05:53 Clear with Smoke 73 22.8 53 11.7 50 50 Calm 29.96 1015 10 16 0.00 0.00
6:53 am 06:53 Sunny with Smoke 71 21.7 54 12.2 55 55 Calm 29.97 1015 10 16 0.00 0.00
7:53 am 07:53 Sunny with Smoke 78 25.6 53 11.7 42 42 Calm 29.98 1015 10 16 0.00 0.00
8:53 am 08:53 Sunny with Smoke 83 28.3 52 11.1 34 34 Calm 29.99 1016 10 16 0.00 0.00
9:53 am 09:53 Sunny with Smoke 87 30.6 51 10.6 29 29 Calm 29.98 1015 10 16 0.00 0.00
10:53 am 10:53 Sunny with Smoke 91 32.8 52 11.1 26 26 ESE 3 6 29.97 1015 10 16 0.00 0.00
11:53 am 11:53 Sunny with Smoke 95 35 51 10.6 23 23 ESE 5 7 29.96 1014 10 16 0.00 0.00
12:53 pm 12:53 Sunny with Smoke 98 36.7 45 7.2 16 16 VRB 3 6 29.94 1014 10 16 0.00 0.00
1:53 pm 13:53 Sunny with Smoke 100 37.8 45 7.2 15 15 VRB 3 6 29.93 1014 10 16 0.00 0.00
2:53 pm 14:53 Sunny with Smoke 103 39.4 46 7.8 15 15 SE 8 13 29.90 1013 10 16 0.00 0.00
3:53 pm 15:53 Sunny with Smoke 105 40.6 38 3.3 10 10 SE 15 24 29.88 1012 10 16 0.00 0.00
4:53 pm 16:53 Sunny with Smoke 105 40.6 38 3.3 10 10 S 17 28 29.87 1012 10 16 0.00 0.00
5:53 pm 17:53 Sunny with Smoke 104 40 38 3.3 10 10 S 14 22 29.86 1011 10 16 0.00 0.00
6:53 pm 18:53 Sunny with Smoke 102 38.9 40 4.4 12 12 SSE 13 20 29.85 1011 10 16 0.00 0.00
7:53 pm 19:53 Sunny with Smoke 97 36.1 43 6.1 16 16 S 7 11 29.87 1012 10 16 0.00 0.00
8:53 pm 20:53 Clear with Smoke 95 35 40 4.4 15 15 SSW 7 11 29.88 1012 10 16 0.00 0.00
9:53 pm 21:53 Clear with Smoke 93 33.9 46 7.8 20 20 SSW 10 17 29.90 1013 10 16 0.00 0.00
10:53 pm 22:53 Clear with Smoke 86 30 49 9.4 28 28 SSE 6 9 29.92 1013 10 16 0.00 0.00
11:53 pm 23:53 Clear with Smoke 85 29.4 53 11.7 33 33 Calm 29.94 1014 10 16 0.00 0.00

Powered by AerisWeather